066  
ASUS43 KFSD 232010  
RWRFSD  
 
WEATHER ROUNDUP FOR SE SOUTH DAKOTA/SW MINNESOTA/NW IOWA  
NATIONAL WEATHER SERVICE SIOUX FALLS SD  
300 PM CDT SUN JUL 23 2017  
 
NOTE: "FAIR" INDICATES FEW OR NO CLOUDS BELOW 12,000 FEET WITH NO  
SIGNIFICANT WEATHER AND OR S TO VISIBILITY
.  
 
 
SDZ038>040-050-052>070-232100-  
SOUTHEAST SOUTH DAKOTA  
 
CITY SKY/WX TMP DP RH WIND PRES REMARKS
 
BROOKINGS MOSUNNY 75 60 59 NW12 30.02S  
CHAMBERLAIN SUNNY 88 53 29 N7 30.02S  
HURON MOSUNNY 79 60 52 N9 30.01F  
MADISON FAIR 75 61 60 N13G18 30.03S  
MITCHELL SUNNY 81 59 47 N12 30.02F  
SIOUX FALLS MOSUNNY 80 61 52 N14G21 30.00F  
WINNER FAIR 91 50 24 NE10G17 30.03F  
YANKTON SUNNY 82 59 45 N12G18 30.00F  

 
 
MNZ071-072-080-081-089-090-097-098-232100-  
SOUTHWEST MINNESOTA  
 
CITY SKY/WX TMP DP RH WIND PRES REMARKS
 
FAIRMONT MOSUNNY 74 61 63 NW15 29.97F  
JACKSON PTSUNNY 72 59 64 N12G22 30.00S  
LUVERNE MOSUNNY 79 55 44 N12 30.00F  
MARSHALL MOSUNNY 72 60 66 N16 30.01S  
MONTEVIDEO PTSUNNY 79 61 53 N10G18 30.01S  
PIPESTONE SUNNY 75 57 53 NE10G16 30.02S  
REDWOOD FALLS PTSUNNY 75 58 55 N8 29.98S  
WINDOM SUNNY 72 57 60 NW13 30.00F  
WORTHINGTON MOSUNNY 75 60 59 N16 30.01S  

 
 
IAZ001>003-012>014-020>022-031-032-NEZ013-014-SDZ071-232100-  
NORTHWEST IOWA  
 
CITY SKY/WX TMP DP RH WIND PRES REMARKS
 
CHEROKEE SUNNY 81 57 44 N12G17 29.97S  
DENISON SUNNY 82 61 47 NW14 29.98S  
ESTHERVILLE MOSUNNY 75 61 61 N18G24 29.97F  
ORANGE CITY MOSUNNY 81 63 54 NW12 29.99S  
SHELDON MOSUNNY 79 61 53 NW14 29.97F  
SIOUX CITY SUNNY 86 61 42 NW13 29.96F  
SPENCER MOSUNNY 81 59 47 N17G25 29.97F  
STORM LAKE MOSUNNY 79 61 53 N10 29.98S  

 
 
ABBREVIATIONS USED IN REMARKS  
TC - TEMPERATURE IN CELSIUS  
WCI - WIND CHILL INDEX  
HX - HEAT INDEX  
VSB - VISIBILITY  
 
 
 
CLICK HERE TO GO TO PREVIOUS BULLETINS.

The Nexlab SD Page
The Nexlab IA Page
The Nexlab MN Page
The Nexlab NE Page Main Text Page